Regional Weather Roundup
Issued by NWS

Home | Current Version | Previous Version | Graphics & Text | Print | Product List | Glossary On
Versions: 1 2 3 4 5 6 7 8 9 10 11 12 13 14 15 16 17 18 19 20 21 22 23 24 25 26 27 28 29 30 31 32 33 34 35 36 37 38 39 40 41 42 43 44 45 46 47 48 49 50
000
ASUS43 KTOP 271859
RWRKS

WEATHER ROUNDUP FOR KANSAS
NATIONAL WEATHER SERVICE GOODLAND KS
100 PM CST FRI FEB 27 2015

NOTE:  "FAIR" INDICATES FEW OR NO CLOUDS BELOW 12,000 FEET WITH NO
SIGNIFICANT WEATHER AND/OR OBSTRUCTIONS TO VISIBILITY.

KSZ001>006-013>018-027>032-041>047-272000-
NORTHWEST KANSAS

CITY           SKY/WX    TMP DP  RH WIND       PRES   REMARKS
GOODLAND       FLURRIES  17   9  70 S18G26    30.24F WCI   1
HAYS           PTSUNNY   18  -6  35 E10       30.45F WCI   6
HILL CITY      CLOUDY    20   1  43 SE13      30.43F WCI   7
RUSSELL        CLOUDY    16   0  49 VRB5      30.46F
$$

KSZ061>065-074>080-084>089-272000-
SOUTHWEST KANSAS

CITY           SKY/WX    TMP DP  RH WIND       PRES   REMARKS
DODGE CITY     LGT SNOW  15   6  67 SE14      30.41F WCI   0
ELKHART          N/A     12   2  64 SE17        N/A  WCI  -5
GARDEN CITY    LGT SNOW  14   9  80 S14       30.35F WCI  -1
GREAT BEND     CLOUDY    18  -2  41 SE8       30.47F
LIBERAL        CLOUDY    14   7  73 E15       30.36F WCI  -1
$$

KSZ066>073-081>083-090>101-272000-
SOUTHEAST KANSAS

CITY           SKY/WX    TMP DP  RH WIND       PRES   REMARKS
CHANUTE        CLOUDY    17   0  47 NE7       30.59F
COFFEYVILLE    CLOUDY    20   1  43 NE9       30.61F
HUTCHINSON     FLURRIES  17   6  62 VRB3      30.51F
MEDICINE LODGE   N/A     14   9  80 SE6       30.52S
NEWTON         CLOUDY    16   1  53 E9        30.52F
PARSONS        CLOUDY    19   1  45 NE6       30.61F
WICHITA INTL   LGT SNOW  15   7  70 E8        30.53F
WICHITA JABRA  LGT SNOW  14   6  70 E8        30.52F
WICHITA MCCONL LGT SNOW  15   8  72 E8        30.52F
WINFIELD       CLOUDY    17   3  54 E12       30.55F WCI   4
$$

KSZ007>012-019>026-033>040-048>060-102>105-272000-
NORTHEAST KANSAS

CITY           SKY/WX    TMP DP  RH WIND       PRES   REMARKS
CONCORDIA      MOSUNNY   15   1  53 SE6       30.52F
EMPORIA        PTSUNNY   15   0  51 NE6       30.56F
LAWRENCE       PTSUNNY   15   0  51 CALM      30.62F
MANHATTAN      CLOUDY    17   1  49 NE6       30.58F
OLATHE IND     CLOUDY    15  -2  46 VRB6      30.60F
OLATHE EXE     PTSUNNY   14  -3  47 CALM      30.58F
SALINA         CLOUDY    17  -1  45 E7        30.55F
TOPEKA BILLARD PTSUNNY   15   0  51 CALM      30.62F
TOPEKA FORBES  PTSUNNY   15  -1  49 S3        30.59F
$$


USA.gov is the U.S. government's official web portal to all federal, state and local government web resources and services.